User: anonymous   Login
Location: Vancouver
(49.2500°N, 123.1330°W)
Time: 00:34:06
(UTC-07:00)
Language:

Cosmos 2333 Rocket - Orbit

View from above orbital plane
View from above orbital plane
View from above satellite
View from above satellite

Ground track
Ground track

The orbit data is extracted from the following two-line orbital elements,

1 24298U 96051B   16183.38469648  .00000061  00000-0  59233-4 0  9996
2 24298  70.8376  81.5021 0015763 332.3146  27.7133 14.12408963 22284
Epoch (UTC): 01 July 2016 09:13:57
Eccentricity: 0.0015763
inclination: 70.8376°
perigee height: 840 km
apogee height: 862 km
right ascension of ascending node: 81.5021°
argument of perigee: 332.3146°
revolutions per day: 14.12408963
mean anomaly at epoch: 27.7133°
orbit number at epoch: 2228

The dashed part of the orbit path shows where the satellite is in the earth's shadow,  

DLR